Stations météo

réclame
Mon MeteoGroup
Cap Ferret, France (7500): Température de l'air & dewpoint: 14.11.2017 12:00:00 - 20.11.2017 12:00:00 (CET)Cap Ferret, France (7500): Vitesse du vent & gusts: 14.11.2017 12:00:00 - 20.11.2017 12:00:00 (CET)Cap Ferret, France (7500): Direction du vent: 14.11.2017 12:00:00 - 20.11.2017 12:00:00 (CET)Cap Ferret, France (7500): reduced air pressure: 14.11.2017 12:00:00 - 20.11.2017 12:00:00 (CET)Cap Ferret, France (7500): visibility: 14.11.2017 12:00:00 - 20.11.2017 12:00:00 (CET)Cap Ferret, France (7500): Ensoleillement: 14.11.2017 12:00:00 - 20.11.2017 12:00:00 (CET)Cap Ferret, France (7500): Quantités de précipitations: 14.11.2017 12:00:00 - 20.11.2017 12:00:00 (CET)
Date & Time tt [°C] td [°C] ff [km/h] ff [knt] fx [km/h] fx [knt] dd ppp [hPa] vv [km] sd [min] rr [mm]
20.11.2017 12:00:00 9,2 7,6 18 10 30 16 E 1025,7 - 0 0,0
20.11.2017 11:00:00 8,8 7,6 9 5 26 14 E 1025,7 - 6 0,0
20.11.2017 10:00:00 8,3 7,4 6 3 38 20 SE 1025,6 8 29 0,0
20.11.2017 09:00:00 6,9 6,3 20 11 38 20 ESE 1025,6 - 0 0,0
20.11.2017 08:00:00 5,7 5,0 16 8 34 18 E 1025,8 0,2 0 0,2
20.11.2017 07:00:00 5,7 4,7 16 9 31 17 ESE 1025,6 8 0 0,0
20.11.2017 06:00:00 6,3 4,8 16 8 26 14 SE 1025,3 - 0 0,0
20.11.2017 05:00:00 5,9 5,2 11 6 19 10 ESE 1025,5 - 0 0,0
20.11.2017 04:00:00 4,1 2,8 6 3 13 7 SE 1025,6 15 0 0,0
20.11.2017 03:00:00 4,9 3,6 9 5 14 7 ESE 1025,8 - 0 0,0
20.11.2017 02:00:00 5,3 4,1 10 5 15 8 SE 1026,1 - 0 0,0
20.11.2017 01:00:00 4,7 3,2 5 3 14 7 E 1026,7 15 0 0,0
20.11.2017 00:00:00 5,0 3,0 6 4 13 7 ESE 1026,9 - 0 0,0
19.11.2017 23:00:00 6,2 4,5 8 4 14 8 ENE 1027,1 - 0 0,0
19.11.2017 22:00:00 6,5 5,1 8 4 14 7 ENE 1027,1 15 0 0,0
19.11.2017 21:00:00 6,3 4,1 6 3 14 7 ENE 1026,7 - 0 0,0
19.11.2017 20:00:00 6,9 4,6 7 4 13 7 E 1026,6 - 0 0,0
19.11.2017 19:00:00 7,9 5,9 10 6 16 8 ENE 1026,2 15 0 0,0
19.11.2017 18:00:00 8,0 4,4 9 5 12 6 NE 1026,0 - 20 0,0
19.11.2017 17:00:00 10,6 5,1 5 3 10 5 NNE 1025,9 - 60 0,0
19.11.2017 16:00:00 11,9 4,6 6 4 14 8 NNE 1025,8 15 60 0,0
19.11.2017 15:00:00 11,4 4,8 8 4 16 8 NE 1025,9 - 60 0,0
19.11.2017 14:00:00 11,0 5,1 9 5 18 10 ENE 1026,2 - 60 0,0
19.11.2017 13:00:00 10,5 4,2 10 5 17 9 NNE 1027,0 15 60 0,0
19.11.2017 12:00:00 9,3 4,9 6 4 13 7 NE 1027,3 - 60 0,0
19.11.2017 11:00:00 8,7 4,5 7 4 16 9 ENE 1027,3 - 60 0,0
19.11.2017 10:00:00 6,5 4,3 10 6 16 9 NE 1026,9 15 60 0,0
19.11.2017 09:00:00 3,5 2,3 8 4 13 7 NE 1026,5 - 37 0,0
19.11.2017 08:00:00 3,4 1,4 5 3 15 8 ENE 1026,1 - 0 0,0
19.11.2017 07:00:00 5,1 3,6 12 6 16 9 ENE 1025,7 15 0 0,0
19.11.2017 06:00:00 5,0 3,7 9 5 16 9 ENE 1025,5 - 0 0,0
19.11.2017 05:00:00 5,3 4,3 10 5 17 9 ENE 1025,5 - 0 0,0
19.11.2017 04:00:00 4,8 3,5 8 4 18 10 NE 1025,6 15 0 0,0
19.11.2017 03:00:00 3,8 2,9 13 7 16 9 NE 1025,7 - 0 0,0
19.11.2017 02:00:00 2,8 1,2 8 5 11 6 NNE 1025,6 - 0 0,0
19.11.2017 01:00:00 3,5 1,5 8 4 10 5 NE 1025,6 15 0 0,0
19.11.2017 00:00:00 5,0 2,9 7 4 16 8 NNE 1026,0 - 0 0,0
18.11.2017 23:00:00 6,8 4,5 9 5 16 9 NE 1025,9 - 0 0,0
18.11.2017 22:00:00 7,8 4,7 8 5 22 12 ENE 1026,1 15 0 0,0
18.11.2017 21:00:00 8,6 5,9 16 9 25 14 NE 1026,0 - 0 0,0
18.11.2017 20:00:00 7,4 5,7 11 6 18 10 NNE 1025,8 - 0 0,0
18.11.2017 19:00:00 7,8 4,6 11 6 15 8 NNE 1025,8 15 0 0,0
18.11.2017 18:00:00 9,9 5,7 11 6 19 10 NE 1025,5 - 23 0,0
18.11.2017 17:00:00 10,5 5,9 8 5 16 9 NNE 1025,3 - 60 0,0
18.11.2017 16:00:00 11,1 5,8 8 5 22 12 NNE 1025,2 15 60 0,0
18.11.2017 15:00:00 10,6 6,0 12 7 26 14 NNE 1025,2 - 60 0,0
18.11.2017 14:00:00 10,3 5,9 16 9 28 15 NNE 1025,6 - 60 0,0
18.11.2017 13:00:00 9,7 5,7 16 9 30 16 NE 1025,9 15 60 0,0
18.11.2017 12:00:00 8,6 5,2 19 10 29 16 NE 1026,3 - 60 0,0
18.11.2017 11:00:00 8,7 5,1 16 8 25 13 ENE 1026,4 - 60 0,0
18.11.2017 10:00:00 7,3 4,3 17 9 37 20 NE 1026,2 15 60 0,0
18.11.2017 09:00:00 6,3 4,3 22 12 37 20 NE 1025,9 - 41 0,0
18.11.2017 08:00:00 6,0 4,2 24 13 42 23 NE 1025,2 - 0 0,0
18.11.2017 07:00:00 5,9 3,9 22 12 35 19 NE 1025,0 15 0 0,0
18.11.2017 06:00:00 6,0 3,7 20 11 31 17 NE 1024,4 - 0 0,0
18.11.2017 05:00:00 6,4 3,9 17 9 29 16 NE 1024,4 - 0 0,0
18.11.2017 04:00:00 6,6 3,9 23 12 33 18 NE 1024,5 15 0 0,0
18.11.2017 03:00:00 6,9 4,2 19 10 29 16 NE 1024,6 - 0 0,0
18.11.2017 02:00:00 6,9 4,0 19 10 28 15 NE 1024,2 - 0 0,0
18.11.2017 01:00:00 7,1 4,2 20 11 30 16 NE 1024,3 15 0 0,0
18.11.2017 00:00:00 7,4 4,2 17 9 29 16 NE 1024,4 - 0 0,0
17.11.2017 23:00:00 8,4 4,6 16 8 26 14 NNE 1024,6 - 0 0,0
17.11.2017 22:00:00 9,3 4,9 16 9 29 16 NE 1024,0 15 0 0,0
17.11.2017 21:00:00 10,2 5,2 18 10 30 16 NNE 1024,0 - 0 0,0
17.11.2017 20:00:00 10,7 5,0 13 7 23 13 N 1023,9 - 0 0,0
17.11.2017 19:00:00 11,2 6,1 14 7 23 12 NNE 1023,6 12 0 0,0
17.11.2017 18:00:00 11,9 8,0 14 8 23 12 N 1023,4 - 25 0,0
17.11.2017 17:00:00 13,0 8,1 16 9 26 14 NNW 1023,3 - 60 0,0
17.11.2017 16:00:00 13,7 7,2 15 8 23 13 NNW 1023,3 12 60 0,0
17.11.2017 15:00:00 13,8 6,6 10 6 16 9 NNW 1023,4 - 60 0,0
17.11.2017 14:00:00 14,1 6,7 11 6 19 10 NNW 1023,7 - 60 0,0
17.11.2017 13:00:00 12,8 6,8 10 5 16 9 NNW 1024,2 12 60 0,0
17.11.2017 12:00:00 10,7 5,9 4 2 11 6 NE 1024,5 - 60 0,0
17.11.2017 11:00:00 10,8 5,7 5 3 11 6 NE 1024,8 - 60 0,0
17.11.2017 10:00:00 8,3 5,6 3 2 6 3 NNE 1024,8 12 37 0,0
17.11.2017 09:00:00 7,1 4,6 5 3 16 9 E 1024,5 - 28 0,0
17.11.2017 08:00:00 6,9 4,9 11 6 18 10 ENE 1024,0 - 0 0,0
17.11.2017 07:00:00 7,1 5,2 11 6 19 10 NE 1023,9 12 0 0,0
17.11.2017 06:00:00 7,3 5,3 11 6 19 11 ENE 1023,8 - 0 0,0
17.11.2017 05:00:00 7,9 6,0 15 8 19 10 NE 1023,8 - 0 0,0
17.11.2017 04:00:00 6,7 5,0 10 5 16 9 ENE 1023,7 15 0 0,0
17.11.2017 03:00:00 6,4 4,6 11 6 15 8 NE 1023,9 - 0 0,0
17.11.2017 02:00:00 6,7 5,0 10 5 14 7 NNE 1024,0 - 0 0,0
17.11.2017 01:00:00 6,3 3,8 5 3 11 6 ENE 1023,9 15 0 0,0
17.11.2017 00:00:00 7,5 4,8 8 4 12 7 E 1024,0 - 0 0,0
16.11.2017 23:00:00 8,7 6,3 8 4 16 9 ENE 1023,9 - 0 0,0
16.11.2017 22:00:00 9,4 7,5 14 8 18 10 NE 1023,7 15 0 0,0
16.11.2017 21:00:00 9,2 7,8 13 7 16 9 NE 1023,6 - 0 0,0
16.11.2017 20:00:00 7,6 5,2 10 5 12 7 NE 1023,6 - 0 0,0
16.11.2017 19:00:00 7,6 4,5 5 3 9 5 ENE 1023,3 15 0 0,0
16.11.2017 18:00:00 8,9 4,5 8 4 13 7 N 1022,9 - 0 0,0
16.11.2017 17:00:00 10,9 5,2 9 5 10 5 N 1022,8 - 7 0,0
16.11.2017 16:00:00 12,0 4,0 5 3 13 7 NNE 1022,6 15 41 0,0
16.11.2017 15:00:00 12,2 3,7 8 4 14 8 NNE 1022,4 - 60 0,0
16.11.2017 14:00:00 11,7 3,5 11 6 16 9 NE 1022,4 - 60 0,0
16.11.2017 13:00:00 10,8 3,8 5 3 16 8 NE 1022,7 15 60 0,0
16.11.2017 12:00:00 9,0 4,4 7 4 14 8 NNE 1023,1 - 60 0,0
16.11.2017 11:00:00 8,3 3,7 6 3 11 6 ENE 1023,1 - 60 0,0
16.11.2017 10:00:00 6,7 3,1 7 4 14 8 ENE 1023,0 15 56 0,0
16.11.2017 09:00:00 4,9 2,6 7 4 15 8 E 1022,4 - 47 0,0
16.11.2017 08:00:00 4,4 1,9 8 5 14 8 E 1021,7 - 0 0,0
16.11.2017 07:00:00 5,0 2,0 8 4 16 9 E 1021,6 15 0 0,0
16.11.2017 06:00:00 5,0 2,0 9 5 16 8 E 1021,3 - 0 0,0
16.11.2017 05:00:00 5,1 1,8 9 5 15 8 E 1021,0 - 0 0,0
16.11.2017 04:00:00 5,9 2,0 12 6 22 12 ENE 1021,1 15 0 0,0
16.11.2017 03:00:00 6,5 2,8 13 7 23 12 ENE 1021,3 - 0 0,0
16.11.2017 02:00:00 6,5 3,3 12 7 17 9 ENE 1021,6 - 0 0,0
16.11.2017 01:00:00 6,0 2,3 8 4 16 9 ENE 1022,0 15 0 0,0
16.11.2017 00:00:00 7,1 2,4 9 5 20 11 ENE 1022,1 - 0 0,0
15.11.2017 23:00:00 6,6 2,5 10 6 17 9 ENE 1022,2 - 0 0,0
15.11.2017 22:00:00 6,2 3,7 11 6 18 10 E 1022,0 15 0 0,0
15.11.2017 21:00:00 5,0 2,4 8 4 13 7 ENE 1022,1 - 0 0,0
15.11.2017 20:00:00 6,8 2,5 3 1 15 8 ENE 1022,2 - 0 0,0
15.11.2017 19:00:00 9,5 3,5 10 5 27 15 ENE 1021,6 15 0 0,0
15.11.2017 18:00:00 9,8 2,6 16 8 27 14 NE 1021,8 - 27 0,0
15.11.2017 17:00:00 10,3 3,1 8 4 16 9 NNE 1021,8 - 60 0,0
15.11.2017 16:00:00 11,3 2,8 9 5 20 11 NNE 1021,8 15 60 0,0
15.11.2017 15:00:00 10,7 3,2 11 6 19 11 NE 1021,7 - 60 0,0
15.11.2017 14:00:00 10,3 3,6 9 5 17 9 NNE 1022,5 - 60 0,0
15.11.2017 13:00:00 8,7 2,9 4 2 14 8 ENE 1023,1 15 57 0,0
15.11.2017 12:00:00 7,6 2,3 8 4 20 11 E 1024,0 - 60 0,0
15.11.2017 11:00:00 7,0 2,1 12 7 26 14 ENE 1024,2 - 60 0,0
15.11.2017 10:00:00 5,9 1,6 19 10 27 15 NE 1024,5 15 60 0,0
15.11.2017 09:00:00 4,5 2,0 13 7 25 13 ENE 1024,7 - 14 0,0
15.11.2017 08:00:00 4,3 2,0 16 9 29 16 NE 1024,5 - 0 0,0
15.11.2017 07:00:00 4,6 2,1 18 10 33 18 ENE 1024,3 15 0 0,0
15.11.2017 06:00:00 5,1 2,4 21 11 31 17 ENE 1024,5 - 0 0,0
15.11.2017 05:00:00 5,4 2,4 24 13 39 21 NE 1024,6 - 0 0,0
15.11.2017 04:00:00 5,5 3,2 20 11 33 18 NE 1025,0 20 0 0,0
15.11.2017 03:00:00 5,6 2,9 16 9 32 17 NE 1025,8 - 0 0,0
15.11.2017 02:00:00 5,3 2,8 14 7 24 13 ENE 1025,7 - 0 0,0
15.11.2017 01:00:00 5,8 2,8 14 8 31 17 NE 1026,0 20 0 0,0
15.11.2017 00:00:00 6,3 2,7 20 11 38 21 NE 1026,4 - 0 0,0
14.11.2017 23:00:00 7,1 3,0 20 11 35 19 NE 1026,7 - 0 0,0
14.11.2017 22:00:00 7,6 3,1 18 10 32 18 NE 1027,0 20 0 0,0
14.11.2017 21:00:00 7,9 3,5 16 9 26 14 NE 1027,0 - 0 0,0
14.11.2017 20:00:00 8,5 3,7 19 10 29 16 NE 1027,2 - 0 0,0
14.11.2017 19:00:00 8,5 3,1 16 9 28 15 NNE 1027,1 20 0 0,0
14.11.2017 18:00:00 9,0 2,5 14 7 26 14 NNE 1026,7 - 26 0,0
14.11.2017 17:00:00 10,0 2,1 13 7 23 12 NNE 1026,3 - 60 0,0
14.11.2017 16:00:00 11,0 2,3 11 6 21 11 NNE 1026,5 20 60 0,0
14.11.2017 15:00:00 10,6 2,7 9 5 16 9 NE 1026,9 - 60 0,0
14.11.2017 14:00:00 10,7 2,8 8 5 20 11 NE 1027,6 - 60 0,0
14.11.2017 13:00:00 9,8 3,3 8 5 17 9 NE 1028,2 20 60 0,0
14.11.2017 12:00:00 8,8 3,6 9 5 16 9 NNE 1028,7 - 60 0,0

tt = Température de l'air
td = dewpoint
ff = Vitesse du vent
fx = gusts
dd = Direction du vent
ppp = reduced air pressure
vv = visibility
sd = Ensoleillement
rr = Quantités de précipitations

stations d'obs. à proximité